TimePST,TemperatureF,Dew PointF,Humidity,Sea Level PressureIn,VisibilityMPH,Wind Direction,Wind SpeedMPH,Gust SpeedMPH,PrecipitationIn,Events,Conditions,WindDirDegrees,DateUTC
12:58 AM,45.5,37.8,74,30.11,10.0,North,2.3,-,N/A,,Clear,360,2013-01-19 08:58:00
1:58 AM,44.2,37.4,77,30.11,10.0,WNW,2.3,-,N/A,,Clear,300,2013-01-19 09:58:00
2:59 AM,45.0,30.6,57,30.10,10.0,NNW,2.3,-,N/A,,Clear,340,2013-01-19 10:59:00
3:58 AM,46.4,26.6,46,30.10,10.0,NNW,3.5,-,N/A,,Clear,340,2013-01-19 11:58:00
4:58 AM,46.0,26.4,46,30.11,10.0,NW,3.5,-,N/A,,Clear,320,2013-01-19 12:58:00
5:58 AM,43.2,26.8,52,30.12,10.0,NW,2.3,-,N/A,,Clear,320,2013-01-19 13:58:00
6:58 AM,42.8,27.0,54,30.14,10.0,North,3.5,-,N/A,,Clear,350,2013-01-19 14:58:00
7:58 AM,46.4,31.3,56,30.16,10.0,NNW,2.3,-,N/A,,Partly Cloudy,340,2013-01-19 15:58:00
8:58 AM,58.8,30.7,35,30.17,10.0,NW,2.3,-,N/A,,Partly Cloudy,310,2013-01-19 16:58:00
9:58 AM,67.3,27.7,23,30.19,10.0,NW,2.3,-,N/A,,Partly Cloudy,310,2013-01-19 17:58:00
10:58 AM,72.0,24.1,17,30.17,10.0,WSW,3.5,-,N/A,,Partly Cloudy,250,2013-01-19 18:58:00
11:58 AM,74.5,22.1,14,30.14,10.0,Calm,Calm,-,N/A,,Clear,0,2013-01-19 19:58:00
12:58 PM,75.9,29.1,18,30.11,10.0,Variable,4.6,-,N/A,,Clear,0,2013-01-19 20:58:00
1:58 PM,76.1,28.4,17,30.10,10.0,SSW,6.9,-,N/A,,Clear,210,2013-01-19 21:58:00
2:55 PM,77.0,28.4,17,30.07,10.0,SSW,8.1,-,N/A,,Clear,210,2013-01-19 22:55:00
2:58 PM,76.3,28.0,17,30.08,10.0,SSW,8.1,-,N/A,,Clear,210,2013-01-19 22:58:00
3:55 PM,73.4,32.0,22,30.07,10.0,SSW,5.8,-,N/A,,Clear,210,2013-01-19 23:55:00
4:55 PM,68.0,28.4,23,30.07,10.0,South,4.6,-,N/A,,Clear,190,2013-01-20 00:55:00
9:55 PM,53.6,30.2,41,30.12,10.0,North,2.3,-,N/A,,Clear,350,2013-01-20 05:55:00
10:55 PM,53.6,28.4,38,30.13,10.0,Calm,Calm,-,N/A,,Clear,0,2013-01-20 06:55:00
11:58 PM,47.1,31.1,54,30.14,10.0,Calm,Calm,-,N/A,,Clear,0,2013-01-20 07:58:00